RH
89 89 90 91 86 90 88 86 86 84 83 82 81 82 84 85 86 89 97 92 70 69 70 63 54 68 64 72 84 68 68 68 76 82 70 71 79 73 73 70 93 86 93 85 86 95 91 41 41 61 39 43 43 40
89 90 90 91 89 88 84 81 77 77 79 81 81 78 73 69 78 74 92 85 78 80 84 79 75 74 65 53 67 69 71 67 68 81 78 75 72 83 76 78 62 74 88 89 88 81 47 40 37 34 41 38 41 40
92 91 90 88 84 82 83 84 84 83 77 68 67 68 73 71 62 73 95 93 82 88 76 71 72 63 61 64 53 67 71 64 68 71 81 85 86 75 90 81 74 64 58 55 45 47 43 36 31 30 34 34 34 38
84 84 83 83 83 84 85 85 81 73 67 66 66 66 64 64 72 78 93 92 79 85 89 74 58 65 56 62 62 57 66 73 77 76 91 96 89 75 90 73 71 54 60 54 62 47 36 35 30 29 34 36 42 44
85 84 85 85 84 84 84 77 68 66 66 67 68 70 72 72 74 84 92 93 85 73 88 78 68 68 62 71 73 70 71 76 90 92 96 93 81 85 92 87 89 64 56 56 51 37 44 48 44 45 50 51 52 52
85 81 82 84 82 75 73 69 66 67 70 70 70 69 67 66 70 72 74 82 88 82 91 92 75 70 68 68 70 76 83 90 87 91 94 89 83 76 96 97 71 65 58 50 57 52 50 49 49 48 54 67 65 69
84 83 82 78 77 76 72 69 69 69 71 69 70 71 72 76 92 91 81 85 78 81 90 93 90 67 68 78 87 85 88 95 90 95 99 94 92 87 98 97 63 54 50 54 57 65 72 64 68 59 62 61 64 65
83 84 80 78 76 73 71 71 70 69 70 70 71 70 67 66 75 92 88 76 75 85 86 93 89 83 63 85 85 94 97 96 94 97 96 96 89 95 99 79 78 72 73 70 68 67 68 64 64 64 62 64 70 72
78 80 80 79 74 72 72 69 68 69 68 68 66 65 82 88 91 96 68 73 88 82 94 88 86 92 72 88 91 94 96 99 91 100 98 87 93 98 75 76 86 77 68 70 67 66 68 73 73 70 70 71 75 74
82 85 83 79 79 70 68 67 67 68 67 64 76 78 92 97 75 65 72 85 88 94 96 98 94 94 81 88 92 90 96 99 100 85 90 98 91 78 88 85 82 78 77 80 92 83 72 78 75 73 74 72 72 74
89 87 81 75 72 68 65 65 67 71 65 86 94 96 91 65 77 88 95 92 95 87 92 98 94 94 83 91 96 88 98 97 99 89 96 95 94 94 87 89 85 83 82 80 81 82 79 78 84 91 86 78 75 75
84 81 78 75 69 66 64 72 70 86 88 79 88 78 76 84 91 84 100 92 90 89 96 96 95 97 98 95 96 94 99 96 99 92 98 97 96 83 91 84 81 82 87 86 78 82 79 80 86 92 92 88 83 79
84 78 71 67 66 69 74 65 71 75 66 74 84 83 84 90 69 58 80 88 94 95 96 98 92 97 96 95 98 95 99 96 82 98 96 96 90 87 87 88 86 82 86 86 82 76 80 85 86 88 94 88 85 93
72 69 70 73 72 68 70 71 64 68 73 84 75 60 78 86 84 91 87 90 87 96 99 98 99 96 99 99 99 98 91 96 99 100 98 98 91 86 90 82 87 82 82 83 84 83 88 90 89 87 93 94 95 94
72 69 67 67 70 69 67 70 70 85 88 92 79 62 99 88 99 99 98 98 98 98 97 97 96 94 100 99 99 95 97 100 96 95 96 91 83 91 90 80 79 82 85 88 84 88 91 89 93 92 90 94 95 93
70 72 76 68 70 72 74 77 84 83 95 92 94 92 95 97 98 100 100 98 97 99 95 91 99 100 100 99 99 99 99 98 90 97 92 87 87 88 84 77 80 85 84 85 88 91 92 92 94 94 94 95 97 98
73 94 68 72 76 75 74 88 91 96 97 94 100 96 98 98 97 98 98 98 98 96 97 97 96 86 98 100 100 94 97 92 97 94 90 92 93 90 85 84 80 81 82 86 92 90 92 92 95 96 95 94 97 98
97 81 71 73 78 81 95 96 93 96 98 99 95 98 94 98 99 99 99 99 98 100 98 96 93 99 100 100 98 92 98 98 96 96 92 88 87 85 84 88 82 83 89 90 92 93 94 96 96 94 96 97 97 97
84 82 72 71 77 90 96 94 94 100 97 98 88 92 82 86 94 98 98 98 98 97 97 98 100 98 96 95 95 98 99 99 97 92 90 87 88 89 88 86 90 89 88 91 94 92 94 97 96 96 96 96 96 96
71 74 76 75 72 94 97 98 94 90 96 96 97 99 99 99 98 96 95 95 98 100 97 98 97 97 97 98 97 96 95 95 98 96 86 80 87 88 89 92 89 88 89 88 92 91 95 94 94 95 97 96 94 94
87 88 79 84 93 93 97 100 99 94 93 100 99 99 100 99 99 98 100 98 98 100 100 98 98 97 94 96 96 94 94 97 96 96 93 93 83 91 92 88 87 86 90 92 94 93 94 96 96 95 95 94 96 95
97 79 96 88 96 95 96 97 99 98 100 100 100 100 100 100 100 100 98 99 100 97 98 98 99 100 96 96 94 97 93 95 95 95 91 92 95 91 90 89 92 92 93 95 95 96 96 96 96 96 94 96 94 94
84 88 94 92 87 90 97 95 95 99 98 99 100 96 100 100 99 97 100 99 98 96 97 97 96 96 96 92 93 93 95 96 96 95 92 92 93 91 93 91 93 96 95 95 97 97 98 92 94 94 94 94 92 92
76 91 96 96 97 100 96 98 99 99 98 99 100 92 97 100 99 99 99 98 96 96 95 96 95 92 82 85 92 90 91 94 94 92 91 96 94 89 90 94 95 97 96 97 97 97 97 96 93 94 94 94 93 91
84 86 94 100 99 98 100 100 100 94 100 100 97 95 98 100 100 100 98 97 96 95 95 94 93 94 94 88 87 88 89 96 96 96 87 94 95 93 93 96 98 97 97 97 97 96 96 95 95 94 94 93 93 94
97 97 91 100 100 96 99 99 100 96 100 100 100 99 100 100 99 97 97 97 96 96 94 94 94 92 89 92 94 91 90 93 96 95 92 96 96 96 96 96 96 95 97 97 94 94 95 95 94 95 95 94 91 93
99 99 99 88 94 90 94 92 88 97 100 100 100 100 100 100 99 96 95 96 96 93 94 94 95 94 94 91 90 91 94 95 96 95 96 96 96 96 97 96 96 96 96 95 95 93 93 93 93 92 94 94 94 89
99 100 99 98 98 100 97 100 100 100 100 96 96 100 100 96 96 96 96 96 95 94 95 94 95 95 95 94 94 94 95 96 97 97 97 96 95 95 96 96 96 93 95 94 94 94 93 93 93 93 91 93 94 90
100 95 96 100 100 100 100 99 99 97 92 98 99 98 98 92 96 96 94 95 94 95 94 94 91 94 94 95 96 96 95 95 95 95 95 95 94 94 95 96 96 95 95 95 94 95 94 90 88 89 89 90 91 89
100 98 96 100 100 97 98 99 100 99 96 95 92 98 96 93 97 96 95 93 94 95 95 96 95 96 95 95 95 95 95 95 95 95 95 95 96 96 95 95 95 95 93 91 93 89 84 86 85 84 86 87 88 90
97 99 98 100 100 99 99 97 96 84 97 100 99 100 99 98 96 96 96 95 95 95 95 94 94 95 95 95 95 95 95 95 96 96 95 95 95 95 95 94 92 89 88 86 85 85 85 86 87 88 90 91 90 96
97 100 100 99 100 98 98 100 100 100 100 100 100 100 98 98 98 96 94 94 94 94 94 95 95 94 94 95 95 96 93 96 95 95 95 95 95 95 92 90 88 86 86 86 86 86 87 88 90 91 93 95 95 95
100 100 100 100 100 100 99 98 100 100 100 100 100 100 100 99 98 96 96 96 96 96 95 94 94 95 95 96 96 96 94 96 86 74 75 77 78 85 90 88 86 84 84 86 86 87 88 90 92 93 94 96 97 97
Wind_Speed
28 26 23 19 15 26 29 29 28 26 24 22 20 18 16 17 18 7 2 2 2 3 0 2 1 3 2 2 5 5 4 1 1 4 4 3 4 2 1 1 4 5 6 4 6 4 9 7 5 4 3 4 2 6
14 15 15 26 28 30 30 28 26 24 21 19 19 21 22 22 19 9 3 1 2 5 3 2 3 1 2 1 5 2 3 2 3 3 1 2 2 0 1 3 1 3 3 3 4 2 2 4 4 5 2 2 3 5
19 25 29 31 30 29 29 27 25 24 22 21 18 16 17 17 14 7 4 1 4 4 3 2 2 4 4 5 1 5 1 3 2 1 3 2 2 3 3 5 2 2 1 2 1 2 3 4 3 3 4 2 5 5
28 30 31 30 29 28 28 27 24 22 21 19 18 16 15 14 13 8 4 1 3 3 4 1 2 4 5 4 5 2 7 5 5 2 3 2 2 3 3 1 3 3 1 3 3 6 7 3 4 6 6 6 6 7
27 28 28 29 28 27 26 25 23 22 20 19 18 18 19 20 22 12 4 3 2 5 3 2 1 3 4 4 8 7 7 5 2 3 3 2 1 2 0 2 3 5 6 4 5 5 5 7 8 5 7 8 8 8
28 29 29 28 28 28 25 24 22 21 21 19 20 20 20 16 6 4 4 4 3 2 5 3 2 3 6 6 7 6 4 4 3 3 3 2 2 4 3 3 6 5 4 5 5 4 5 11 11 8 8 10 8 8
28 27 27 25 24 24 24 23 22 21 21 19 17 14 14 15 6 5 2 1 3 2 5 2 1 2 2 3 3 3 4 2 3 2 1 2 2 4 2 4 4 5 6 4 4 2 6 6 8 12 12 15 15 14
25 25 24 25 24 23 23 23 22 20 20 20 20 21 20 17 10 6 5 5 3 5 4 4 1 3 4 2 2 2 2 3 3 1 1 2 0 2 3 5 4 4 4 4 4 5 9 11 14 16 16 15 17 15
23 25 24 25 23 24 23 22 21 21 22 20 16 11 5 6 3 1 3 6 4 4 4 3 4 3 3 1 2 3 2 2 1 1 2 3 2 4 5 4 2 2 2 6 11 13 15 14 15 16 16 16 17 16
23 25 28 24 25 23 22 21 22 23 19 9 5 4 3 2 5 5 6 5 6 5 4 3 1 1 3 1 2 2 2 1 0 3 2 3 3 2 2 3 1 5 7 6 8 15 16 17 17 18 19 17 17 18
28 28 26 23 22 21 21 21 21 17 8 4 3 3 1 7 4 5 4 5 4 5 2 1 2 3 3 3 1 1 2 1 1 4 2 3 2 3 4 4 5 7 9 12 12 15 17 19 19 18 19 19 18 19
28 26 24 22 21 20 19 21 14 5 1 5 6 5 4 6 5 8 1 4 3 2 1 3 1 2 0 1 4 2 2 2 4 1 1 3 2 4 4 7 9 9 11 13 13 15 17 18 17 18 17 18 19 20
26 24 22 20 19 18 20 12 15 21 7 4 6 6 5 5 8 6 1 4 1 1 2 1 1 1 3 3 3 1 3 4 2 1 4 4 3 2 6 7 10 9 9 11 14 16 16 18 18 18 18 19 20 18
22 22 21 21 19 16 18 20 14 6 5 5 5 5 4 5 2 4 4 4 3 2 2 2 2 2 0 4 1 1 3 1 3 1 5 3 4 5 6 8 9 13 12 13 15 16 17 17 18 18 17 16 16 15
23 22 20 18 20 18 15 11 8 4 4 4 5 1 2 3 0 3 3 1 1 1 2 3 3 2 2 4 1 2 5 4 6 6 3 2 5 6 8 10 11 12 13 13 14 15 16 17 17 18 16 16 14 11
22 17 10 19 16 13 9 7 5 3 5 5 5 4 1 3 4 2 1 1 1 2 2 4 3 5 3 3 2 6 5 6 5 3 2 5 8 9 10 11 12 12 13 14 14 15 15 15 16 17 17 14 10 6
12 2 15 17 14 14 13 5 4 6 5 5 3 1 3 2 4 2 2 3 2 3 2 3 3 7 1 2 3 5 7 4 2 5 4 5 8 11 12 12 12 13 14 14 14 14 15 15 14 12 11 11 8 6
5 7 16 10 4 5 4 5 5 5 4 1 3 2 1 2 1 1 2 1 3 3 3 4 5 3 5 5 5 4 2 3 4 5 6 8 9 11 9 11 13 14 14 14 13 13 14 12 10 8 9 7 5 7
8 7 9 8 6 5 4 4 4 4 0 1 1 2 1 2 2 1 1 1 1 1 3 2 2 4 4 4 3 3 3 3 6 9 9 10 9 10 10 12 12 13 13 13 13 10 9 8 7 7 4 4 4 4
17 14 12 14 6 4 6 3 2 3 2 2 2 2 0 1 2 1 1 1 0 2 1 3 4 3 3 3 2 5 6 6 5 9 10 6 5 8 9 10 9 12 10 11 9 12 6 5 4 5 4 4 4 6
8 6 10 6 5 7 5 2 4 2 1 2 2 2 1 3 2 1 1 1 3 3 2 3 3 3 3 4 4 6 7 5 7 6 9 10 8 8 8 8 8 8 8 7 7 7 7 4 4 4 5 5 5 6
1 8 4 5 6 5 5 3 2 1 3 1 3 2 2 2 2 3 2 2 3 3 3 2 2 3 5 5 6 5 7 8 8 8 14 13 7 8 8 7 8 7 7 6 5 5 4 2 2 3 4 5 8 7
6 5 5 5 6 6 3 3 3 5 3 3 3 3 3 3 4 2 1 3 4 3 2 2 4 4 8 10 8 8 6 7 6 6 7 7 7 8 7 7 6 7 5 4 3 2 2 6 7 6 6 8 7 8
8 7 5 4 3 1 2 4 2 3 3 5 3 3 4 3 3 3 2 2 2 1 1 3 5 7 6 6 6 7 6 5 7 7 6 6 7 7 6 6 5 4 3 2 2 2 3 4 8 6 6 8 9 10
7 6 5 4 3 5 5 5 5 5 2 2 3 3 3 3 2 1 2 2 1 2 4 5 6 5 7 8 7 7 7 5 6 7 7 6 7 5 5 3 1 3 1 2 2 3 4 5 6 7 8 10 13 13
5 4 3 1 3 3 3 2 1 1 1 3 3 3 3 3 2 3 1 2 2 3 6 7 8 8 7 6 8 8 8 5 5 5 5 5 4 4 4 2 1 3 3 2 4 6 7 8 9 12 13 17 22 15
3 3 3 1 1 3 3 3 2 3 1 1 2 3 3 2 3 1 1 2 3 4 6 6 6 6 7 9 8 8 7 7 5 4 4 4 4 4 3 1 2 2 4 7 7 8 11 11 11 12 12 12 12 12
2 0 2 2 3 1 4 2 2 3 3 2 2 1 4 4 2 2 2 2 5 6 6 6 6 6 7 7 7 7 6 6 1 1 2 2 5 6 7 4 5 14 8 8 9 9 10 10 11 12 14 13 12 10
2 2 2 3 3 2 2 3 3 2 1 2 3 2 3 1 1 2 2 5 6 5 6 7 7 7 6 6 5 5 6 6 5 7 7 6 5 7 7 5 6 6 8 10 20 15 14 12 12 13 14 12 11 10
2 2 3 1 2 2 3 2 2 2 1 1 2 3 2 1 1 1 3 5 5 6 6 6 6 6 6 7 7 7 6 6 6 5 3 4 3 4 6 7 7 7 8 10 12 15 22 15 16 12 13 11 10 10
1 2 3 1 2 2 2 2 3 2 2 2 2 2 3 3 1 1 2 4 5 5 5 7 7 5 6 7 6 6 6 6 7 6 5 4 4 5 6 7 6 6 7 9 9 10 11 12 11 13 13 14 15 12
3 2 2 1 3 3 3 2 1 1 3 3 2 2 4 3 2 2 3 5 5 6 8 7 6 7 8 6 5 2 4 3 4 4 5 4 4 5 5 6 6 7 9 10 10 10 12 13 11 12 12 13 12 11
2 2 1 1 4 4 3 3 4 4 3 2 2 1 1 1 2 2 2 2 3 5 6 7 7 6 8 8 6 5 7 4 1 9 10 10 11 10 6 5 6 8 10 10 10 11 13 15 12 12 12 11 11 10
Wind_Direction
269 263 252 232 194 140 140 139 137 138 139 144 151 154 161 161 165 130 122 159 189 103 67 33 77 120 88 154 144 169 101 272 83 167 196 198 211 226 274 194 175 176 175 199 210 234 249 323 34 49 246 290 20 5
245 246 149 132 135 136 135 135 131 131 134 145 161 173 183 185 167 152 113 200 230 84 109 50 69 25 357 135 127 4 135 145 157 113 52 100 175 101 148 266 319 239 191 184 200 213 146 79 159 241 217 248 346 351
113 119 121 122 124 124 122 122 121 126 139 145 146 148 147 153 150 114 120 127 65 96 44 71 17 343 18 10 287 121 311 141 90 107 147 143 175 139 177 235 232 177 146 201 25 94 140 315 285 166 146 247 287 287
106 108 114 121 123 127 130 132 133 133 133 133 133 139 146 141 126 105 97 5 83 103 107 254 350 27 327 6 50 62 124 77 98 59 97 130 149 144 216 229 187 200 77 195 264 298 326 197 220 243 276 266 276 267
134 132 128 125 128 130 128 134 138 138 131 125 124 121 120 116 104 90 87 43 44 117 134 135 10 2 356 74 69 69 90 97 84 65 80 206 170 117 359 35 237 193 197 185 240 232 216 263 279 254 254 263 245 258
134 134 140 139 140 146 143 136 134 130 123 121 117 115 117 119 89 60 54 359 19 56 99 126 321 21 25 63 71 64 59 74 84 127 201 242 266 130 163 212 250 234 216 201 231 241 245 269 272 277 276 264 264 247
143 146 147 149 141 136 132 130 128 127 123 118 108 100 97 93 74 69 103 268 9 59 87 81 92 5 353 69 49 52 35 67 106 136 194 189 255 159 163 228 226 256 267 266 264 288 298 278 282 296 287 284 284 276
148 151 143 136 135 133 132 131 126 124 118 112 111 105 97 87 73 43 11 33 68 91 68 108 325 30 10 32 56 355 73 28 358 161 123 192 53 94 262 254 296 283 301 293 292 257 251 282 284 284 283 286 282 278
145 141 142 137 135 132 128 127 127 124 123 117 112 101 67 41 52 46 18 44 40 87 109 82 128 203 10 59 73 33 74 62 264 189 242 146 176 223 233 239 275 329 313 285 311 307 298 285 280 280 283 283 279 275
141 135 130 134 129 129 129 131 132 131 121 97 54 48 60 34 334 7 11 23 19 345 32 88 27 91 77 15 12 71 9 157 227 238 166 218 241 303 200 217 358 336 303 299 297 300 302 294 290 288 285 280 276 274
124 124 124 124 123 132 137 139 136 115 60 47 64 66 42 344 53 30 42 65 324 21 7 104 120 128 359 100 178 84 192 242 51 260 218 233 205 258 286 302 291 289 285 282 266 267 273 279 284 286 285 280 278 275
120 123 128 135 139 138 139 131 108 68 62 126 117 71 43 33 38 77 351 329 58 190 345 129 230 139 345 15 90 339 147 72 244 283 63 260 227 232 265 280 285 278 271 274 279 281 284 283 282 282 282 280 278 276
121 128 132 133 130 128 125 115 108 121 100 51 51 56 52 316 42 97 209 309 8 249 244 92 35 123 11 44 73 71 61 233 339 305 231 205 240 224 264 276 283 278 276 276 285 291 290 289 288 287 285 282 279 277
120 119 116 118 118 119 117 119 114 85 66 70 87 33 101 327 250 182 178 179 233 134 147 114 65 82 89 54 122 107 247 41 323 299 239 229 235 269 279 294 293 298 303 299 294 295 296 295 295 293 287 285 285 281
116 114 112 115 116 117 113 96 83 56 75 83 69 129 203 219 203 243 227 314 254 149 92 57 46 79 15 74 69 46 3 266 213 230 227 258 285 279 291 303 303 304 304 299 301 301 300 299 298 298 298 297 293 284
106 97 114 113 106 103 95 67 40 70 52 76 59 72 257 60 319 354 7 287 296 115 88 51 94 51 307 139 89 221 140 230 251 221 301 307 296 298 303 307 303 296 299 299 299 298 299 300 301 300 303 303 299 292
70 40 130 108 99 73 53 69 52 46 107 53 342 345 131 106 181 223 156 240 297 73 162 110 93 221 113 36 268 188 208 225 227 296 277 271 281 298 304 302 300 305 304 303 301 302 302 301 297 304 312 322 335 345
61 113 117 114 81 59 35 38 74 74 70 259 79 268 91 140 128 313 246 255 89 119 112 206 126 132 197 194 249 244 269 267 251 253 287 297 299 298 295 295 299 301 298 301 302 303 300 302 312 313 313 326 356 6
100 95 88 76 84 90 73 32 68 100 186 224 75 35 42 46 39 135 268 293 210 167 111 62 135 205 232 212 236 270 261 243 299 304 295 291 276 281 289 297 292 298 305 305 306 303 301 314 313 315 326 343 28 32
84 71 66 54 61 80 60 360 334 76 122 220 34 22 288 232 301 265 345 315 24 75 8 219 220 226 198 242 233 279 282 285 292 298 296 297 292 292 286 295 299 301 301 304 300 313 313 328 331 334 342 34 54 52
44 358 36 56 42 58 90 21 50 40 81 84 305 40 281 4 11 12 322 322 63 196 246 226 246 257 269 261 254 272 273 261 267 258 283 295 297 293 298 295 291 298 297 304 310 318 349 333 338 358 21 42 56 75
23 31 55 26 69 26 76 342 95 5 75 203 42 25 42 30 324 299 260 61 225 242 206 224 249 272 299 287 281 226 263 270 266 265 282 290 289 301 300 297 300 300 299 305 315 323 334 340 19 42 58 70 69 74
51 44 41 33 66 43 278 9 65 0 84 298 21 39 350 338 237 337 324 219 246 237 234 250 262 252 267 283 281 276 258 262 278 275 279 283 280 279 282 288 287 287 298 301 317 340 351 56 65 61 63 65 72 75
37 53 58 54 59 223 6 14 22 37 35 30 39 347 327 258 314 51 254 261 264 250 259 285 301 303 299 286 291 296 297 283 287 287 278 282 287 292 290 285 277 283 278 302 14 26 33 66 83 78 80 85 83 84
68 339 72 354 340 55 31 5 349 45 24 338 31 333 312 350 29 330 248 281 292 307 318 316 307 299 297 297 296 298 295 279 281 289 295 282 284 291 296 282 302 307 310 84 65 74 77 81 82 87 90 92 93 89
72 309 73 202 295 89 195 40 9 227 113 357 242 270 6 62 34 264 326 328 315 314 326 320 315 311 304 291 296 301 300 294 282 278 280 300 309 300 301 332 352 2 13 74 108 109 106 106 103 103 100 97 96 93
65 300 314 268 132 116 64 40 45 98 83 222 273 14 56 34 269 283 10 37 310 314 307 299 296 291 291 301 299 295 296 290 249 247 303 339 343 343 348 18 37 22 63 74 80 91 95 93 92 91 88 80 79 84
153 42 133 277 55 10 131 62 120 198 242 231 85 345 172 202 270 341 325 341 315 309 303 300 298 296 301 299 297 303 313 317 329 268 304 360 25 14 18 34 96 93 87 84 84 86 87 89 89 89 87 84 80 72
51 347 92 14 8 31 179 167 213 245 355 131 156 260 250 265 350 331 339 325 316 315 325 333 334 334 329 332 325 345 357 2 17 48 43 31 21 14 4 43 66 79 88 91 93 91 92 92 91 89 88 86 83 82
331 337 88 57 109 255 251 184 239 275 259 225 279 308 293 299 344 343 332 338 344 334 319 312 317 331 340 342 340 357 22 12 19 28 49 41 13 348 27 41 46 59 77 88 92 92 90 86 90 85 84 84 83 84
6 46 62 71 224 253 247 296 301 261 17 340 316 192 260 301 304 22 353 332 321 317 331 349 340 339 349 347 348 349 4 13 10 26 48 39 41 46 50 55 57 66 77 85 90 94 99 91 88 91 90 93 95 95
12 75 108 350 298 296 16 39 342 21 332 14 310 333 331 1 318 349 4 348 346 355 345 345 336 328 328 321 313 323 45 342 3 21 33 47 53 55 62 65 69 76 83 87 89 91 90 94 96 95 93 93 92 92
32 36 29 28 1 2 330 42 14 343 3 9 319 313 249 314 277 308 335 28 325 305 315 316 306 303 308 315 341 351 13 348 117 89 94 100 103 95 78 75 83 88 89 90 91 95 93 96 96 97 96 96 92 88